{"data":{"norad_id":56707,"intl_designator":"2023-067V","name":"STARLINK-30070","alt_names":[],"object_type":"PAYLOAD","status":"ACTIVE","operator":null,"country":"US","launch_date":"2023-05-19","launch_site_code":"AFETR","launch_vehicle":null,"mission":null,"orbit_class":"UNKNOWN","rcs_meters":null,"size_class":null,"mass_kg":null,"dimensions":null,"purposes":["comms"],"wikipedia_slug":null,"has_3d_model":false,"image_url":null,"decayed_at":null,"tle_current":{"epoch":"2026-05-24T15:09:55.480896Z","epoch_age_seconds":110088,"freshness":"FRESH","line1":"1 56707U 23067V   26144.63189214 -.00000008  00000+0  92249-5 0  9993","line2":"2 56707  43.0024 202.2449 0001684 257.1426 102.9238 15.27575897167318","mean_motion":15.27575897,"eccentricity":0.0001684,"inclination_deg":43.0024,"raan_deg":202.2449,"arg_perigee_deg":257.1426,"mean_anomaly_deg":102.9238,"bstar":9.2249e-6,"rev_number":16731,"period_min":94.267001909889,"perigee_km":481.90595611768,"apogee_km":484.21680773272,"semimajor_km":6861.1983819252,"source":"CELESTRAK","updated_at":"2026-05-25T13:38:18.122835Z"}}}